This demonstration page uses our WeatherBlox Daily Observations layout. Learn more.

Left ArrowRight Arrow

Hourly Observations for October 10, 2018

Temp ( °F °C ) Dew Point ( °F °C ) Humidity (%) Winds ( mph kmh ) Pressure ( in mb ) Visibility ( mi km ) Precip ( " mm )
12:14 am 00:14 Cloudy with Mist and Fog 39 4 39 4 100 100 NNW 13 20 29.83 1010 6 10 0.00 0.00
12:57 am 00:57 Cloudy with Light Rain 38 3.3 37 2.8 97 97 NNW 20 31 29.80 1009 3 5 0.00 0.03
1:57 am 01:57 Cloudy 38 3.3 36 2.2 93 93 NNW 16 26 29.82 1010 10 16 0.00 0.03
2:38 am 02:38 Cloudy with Mist and Fog 37 3 37 3 100 100 NW 16 26 29.91 1013 5 8 0.00 0.00
2:57 am 02:57 Cloudy with Mist and Fog 38 3.3 37 2.8 97 97 NW 14 22 29.84 1010 5 8 0.00 0.00
3:57 am 03:57 Cloudy with Light Rain 37 2.8 36 2.2 96 96 NW 16 26 29.85 1011 3 5 0.00 0.03
4:57 am 04:57 Cloudy with Light Rain 37 2.8 36 2.2 96 96 NW 12 19 29.87 1012 4 6 0.00 0.03
5:23 am 05:23 Cloudy with Light Rain 37 3 36 2 93 93 NW 14 22 29.91 1013 5 8 0.00 0.00
5:47 am 05:47 Cloudy 37 3 36 2 93 93 NNW 16 26 29.91 1013 7 11 0.00 0.00
5:57 am 05:57 Cloudy 36 2.2 35 1.7 97 97 NNW 18 30 29.86 1011 9 14 0.00 0.03
6:57 am 06:57 Cloudy 36 2.2 34 1.1 93 93 NNW 17 28 29.88 1012 10 16 0.00 0.00
7:57 am 07:57 Cloudy 36 2.2 33 0.6 89 89 NW 17 28 29.90 1013 10 16 0.00 0.00
8:57 am 08:57 Cloudy 37 2.8 33 0.6 86 86 NNW 18 30 29.92 1013 10 16 0.00 0.00
9:57 am 09:57 Cloudy 37 2.8 33 0.6 86 86 NW 17 28 29.95 1014 10 16 0.00 0.00
10:07 am 10:07 Cloudy 37 3 34 1 87 87 NW 18 30 29.97 1015 10 16 0.00 0.00
10:57 am 10:57 Cloudy 39 3.9 33 0.6 79 79 NNW 20 31 29.94 1014 10 16 0.00 0.00
11:57 am 11:57 Cloudy 40 4.4 33 0.6 77 77 NW 21 33 29.95 1014 10 16 0.00 0.03
12:57 pm 12:57 Cloudy 43 6.1 33 0.6 68 68 NNW 20 31 29.96 1015 10 16 0.00 0.00
1:57 pm 13:57 Cloudy 43 6.1 32 0 65 65 NW 18 30 29.97 1015 10 16 0.00 0.00
2:57 pm 14:57 Cloudy 43 6.1 32 0 65 65 NW 20 31 29.98 1015 10 16 0.00 0.00
3:57 pm 15:57 Cloudy 43 6.1 32 0 65 65 NNW 20 31 29.98 1015 10 16 0.00 0.00
4:51 pm 16:51 Cloudy 45 7 32 0 61 61 NNW 17 28 30.00 1016 10 16 0.00 0.00
4:57 pm 16:57 Cloudy 44 6.7 32 0 63 63 NW 14 22 30.01 1016 10 16 0.00 0.00
5:57 pm 17:57 Cloudy 42 5.6 31 -0.6 65 65 NNW 17 28 30.03 1017 10 16 0.00 0.00
6:23 pm 18:23 Cloudy 43 6 32 0 66 66 NNW 15 24 30.03 1017 10 16 0.00 0.00
6:57 pm 18:57 Cloudy 41 5 32 0 70 70 NNW 12 19 30.06 1018 10 16 0.00 0.00
7:57 pm 19:57 Cloudy 39 3.9 31 -0.6 73 73 NNW 15 24 30.09 1019 10 16 0.00 0.00
8:57 pm 20:57 Cloudy 38 3.3 31 -0.6 76 76 NNW 13 20 30.13 1020 10 16 0.00 0.00
9:28 pm 21:28 Cloudy 37 3 30 -1 75 75 NNW 12 19 30.18 1022 10 16 0.00 0.00
9:57 pm 21:57 Cloudy 37 2.8 31 -0.6 79 79 NNW 13 20 30.15 1021 10 16 0.00 0.00
10:57 pm 22:57 Clear 34 1.1 30 -1.1 85 85 NW 6 9 30.16 1022 10 16 0.00 0.00
11:57 pm 23:57 Clear 34 1.1 29 -1.7 82 82 NNW 7 11 30.18 1022 10 16 0.00 0.00

Powered by AerisWeather